Location: Cercedilla
(40.7379°N, 4.0638°W)
Time: 17:57:16
(UTC+00:00)

STARLINK-1278 - Pass Details

Date: 07 June 2020
Orbit: 569 x 570 km, 53.0° (Epoch: 09 July)

Event Time Altitude Azimuth Distance (km) Brightness Sun altitude
Exits shadow 01:53:14 78° 258° (WSW) 584 3.5 -22.5°
Maximum altitude 01:53:28 85° 320° (NW) 575 3.6 -22.5°
Drops below altitude 10° 01:57:45 10° 50° (NE) 1,872 7.2 -22.1°
Sets 02:00:00 0° 51° (NE) 2,773 8.3 -22.0°
